Location: Caltech
(34.1382°N, 118.1253°W)
Time: 23:40:59
(UTC-07:00)

Iridium 72 - Visible Passes

Search period start: 04 May 2016 00:00
Search period end: 14 May 2016 00:00
Orbit: 776 x 779 km, 86.4° (Epoch: 04 May)

Date Brightness Start Highest point End Pass type
(mag) Time Alt. Az. Time Alt. Az. Time Alt. Az.
04 May 7.8 00:20:39 10° N 00:22:23 21° NNW 00:22:23 21° NNW visible
04 May 7.6 23:47:07 10° N 23:49:03 23° N 23:49:03 23° N visible
05 May 7.6 23:14:01 10° NNE 23:15:44 19° NNE 23:15:44 19° NNE visible
06 May 8.1 00:55:12 10° NNW 00:56:12 14° NW 00:56:12 14° NW visible
06 May 7.9 22:41:32 10° NE 22:42:24 13° NE 22:42:24 13° NE visible
07 May 7.7 00:20:56 10° NNW 00:22:53 22° NNW 00:22:53 22° NNW visible
07 May 7.3 23:47:11 10° N 23:49:34 28° N 23:49:34 28° N visible
08 May 7.2 23:13:48 10° N 23:16:16 27° NNE 23:16:16 27° NNE visible
09 May 8.2 00:56:13 10° NW 00:56:44 11° NW 00:56:44 11° NW visible
09 May 7.4 22:40:53 10° NNE 22:42:57 19° NE 22:42:57 19° NE visible
10 May 7.7 00:21:24 10° NNW 00:23:26 20° NW 00:23:26 20° NW visible
10 May 7.8 22:08:55 10° NE 22:09:39 12° NE 22:09:39 12° NE visible
10 May 7.2 23:47:22 10° NNW 23:50:08 31° NNW 23:50:08 31° NNW visible
11 May 6.8 23:13:45 10° N 23:16:51 36° N 23:16:51 36° N visible
12 May 6.9 22:40:33 10° NNE 22:43:34 29° NE 22:43:34 29° NE visible
13 May 7.9 00:22:07 10° NW 00:24:03 17° WNW 00:24:03 17° WNW visible
13 May 7.3 22:07:53 10° NNE 22:10:17 18° ENE 22:10:17 18° ENE visible
13 May 7.2 23:47:42 10° NNW 23:50:46 29° NW 23:50:46 29° NW visible
